Location: Coopersdale
(40.3556°N, 78.9372°W)
Time: 02:53:43
(UTC+00:00)

Tiros 1 despin weight - Pass Details

Date: 28 January 2021
Orbit: 593 x 642 km, 48.2° (Epoch: 02 March)

Event Time Altitude Azimuth Distance (km) Brightness Sun altitude
Rises 22:50:06 0° 300° (WNW) 2,869 ? -4.4°
Reaches altitude 10° 22:52:26 10° 303° (WNW) 1,955 ? -4.9°
Maximum altitude 22:56:53 64° 26° (NNE) 667 ? -5.7°
Drops below altitude 10° 23:01:16 10° 108° (ESE) 1,925 ? -6.5°
Enters shadow 23:03:07 - 111° (ESE) 2,651 ? -6.8°
Sets 23:03:33 0° 111° (ESE) 2,821 - -6.9°
